| time (UTC) | temp F | wind direction | speed MPH | gust MPH | rain 1hr in | rain 24hr in | rain mn in | humidity % | barometer mb |
| 20260503234918 | 53 | 82 | 0.0 | 0.0 | 0.00 | 0.00 | 0.00 | 99 | 1006.2 |
| 20260503234418 | 53 | 75 | 0.0 | 0.0 | 0.00 | 0.00 | 0.00 | 99 | 1007.0 |
| 20260503233918 | 53 | 54 | 0.0 | 0.0 | 0.00 | 0.00 | 0.00 | 99 | 1006.2 |
| 20260503233418 | 54 | 49 | 0.0 | 0.0 | 0.00 | 0.00 | 0.00 | 99 | 1007.0 |
| 20260503232918 | 54 | 53 | 0.0 | 0.0 | 0.00 | 0.00 | 0.00 | 99 | 1006.2 |
| 20260503232418 | 55 | 45 | 0.0 | 4.0 | 0.00 | 0.00 | 0.00 | 99 | 1007.0 |
| 20260503231918 | 55 | 47 | 0.0 | 4.0 | 0.00 | 0.00 | 0.00 | 99 | 1006.2 |
| 20260503231418 | 55 | 34 | 0.0 | 2.0 | 0.00 | 0.00 | 0.00 | 99 | 1007.0 |
| 20260503230918 | 55 | 36 | 0.0 | 4.0 | 0.00 | 0.00 | 0.00 | 99 | 1006.2 |
| 20260503230418 | 55 | 53 | 0.0 | 4.0 | 0.00 | 0.00 | 0.00 | 99 | 1006.2 |
| 20260503225918 | 55 | 5 | 0.0 | 5.0 | 0.00 | 0.00 | 0.00 | 99 | 1006.1 |
| 20260503225418 | 55 | 86 | 1.0 | 5.0 | 0.00 | 0.00 | 0.00 | 99 | 1006.1 |
| 20260503224918 | 55 | 39 | 0.0 | 4.0 | 0.00 | 0.00 | 0.00 | 99 | 1006.0 |
| 20260503224418 | 55 | 45 | 0.0 | 4.0 | 0.00 | 0.00 | 0.00 | 99 | 1006.0 |
| 20260503223918 | 55 | 74 | 1.0 | 4.0 | 0.00 | 0.00 | 0.00 | 99 | 1006.0 |
| 20260503223418 | 56 | 44 | 0.0 | 4.0 | 0.00 | 0.00 | 0.00 | 99 | 1006.0 |
| 20260503222918 | 56 | 55 | 1.0 | 4.0 | 0.00 | 0.00 | 0.00 | 99 | 1006.0 |
| 20260503222418 | 56 | 34 | 0.0 | 4.0 | 0.00 | 0.00 | 0.00 | 99 | 1006.0 |
| 20260503221918 | 56 | 45 | 0.0 | 4.0 | 0.00 | 0.00 | 0.00 | 99 | 1006.0 |
| 20260503221418 | 57 | 87 | 0.0 | 4.0 | 0.00 | 0.00 | 0.00 | 99 | 1006.0 |
| 20260503220918 | 59 | 42 | 0.0 | 8.0 | 0.00 | 0.00 | 0.00 | 99 | 1006.0 |
| 20260503220418 | 62 | 68 | 1.0 | 8.0 | 0.00 | 0.00 | 0.00 | 99 | 1006.0 |
| 20260503215918 | 64 | 76 | 0.0 | 3.0 | 0.00 | 0.00 | 0.00 | 99 | 1006.0 |
| 20260503215418 | 65 | 86 | 0.0 | 3.0 | 0.00 | 0.00 | 0.00 | 99 | 1006.0 |
| 20260503214918 | 65 | 45 | 0.0 | 8.0 | 0.00 | 0.00 | 0.00 | 99 | 1006.0 |
| 20260503214418 | 67 | 45 | 1.0 | 8.0 | 0.00 | 0.00 | 0.00 | 99 | 1006.0 |
| 20260503213918 | 69 | 46 | 0.0 | 5.0 | 0.00 | 0.00 | 0.00 | 99 | 1006.0 |
| 20260503213418 | 69 | 41 | 2.0 | 10.0 | 0.00 | 0.00 | 0.00 | 99 | 1006.0 |
| 20260503212918 | 69 | 7 | 3.0 | 10.0 | 0.00 | 0.00 | 0.00 | 99 | 1006.0 |
| 20260503212418 | 69 | 37 | 0.0 | 7.0 | 0.00 | 0.00 | 0.00 | 99 | 1006.0 |
| 20260503211918 | 70 | 53 | 1.0 | 7.0 | 0.00 | 0.00 | 0.00 | 99 | 1006.0 |
| 20260503211418 | 71 | 49 | 0.0 | 5.0 | 0.00 | 0.00 | 0.00 | 99 | 1006.0 |
| 20260503210918 | 71 | 50 | 0.0 | 5.0 | 0.00 | 0.00 | 0.00 | 99 | 1006.0 |
| 20260503210418 | 72 | 40 | 0.0 | 5.0 | 0.00 | 0.00 | 0.00 | 99 | 1006.0 |
| 20260503205918 | 72 | 47 | 0.0 | 3.0 | 0.00 | 0.00 | 0.00 | 99 | 1006.0 |
| 20260503205418 | 73 | 51 | 0.0 | 3.0 | 0.00 | 0.00 | 0.00 | 99 | 1006.0 |
| 20260503204918 | 72 | 43 | 0.0 | 1.0 | 0.00 | 0.00 | 0.00 | 99 | 1006.0 |
| 20260503204418 | 71 | 97 | 0.0 | 2.0 | 0.00 | 0.00 | 0.00 | 99 | 1006.0 |
| 20260503203918 | 71 | 70 | 0.0 | 5.0 | 0.00 | 0.00 | 0.00 | 99 | 1006.0 |
| 20260503203418 | 72 | 40 | 0.0 | 5.0 | 0.00 | 0.00 | 0.00 | 99 | 1006.0 |
| 20260503202918 | 72 | 43 | 0.0 | 0.0 | 0.00 | 0.00 | 0.00 | 99 | 1006.0 |
| 20260503202418 | 71 | 91 | 0.0 | 3.0 | 0.00 | 0.00 | 0.00 | 99 | 1006.0 |
| 20260503201918 | 71 | 44 | 0.0 | 8.0 | 0.00 | 0.00 | 0.00 | 99 | 1006.0 |
| 20260503201418 | 70 | 48 | 1.0 | 8.0 | 0.00 | 0.00 | 0.00 | 99 | 1006.0 |
| 20260503200918 | 69 | 45 | 0.0 | 6.0 | 0.00 | 0.00 | 0.00 | 99 | 1006.0 |
| 20260503200418 | 68 | 43 | 1.0 | 6.0 | 0.00 | 0.00 | 0.00 | 99 | 1006.0 |
| 20260503195918 | 69 | 82 | 0.0 | 1.0 | 0.00 | 0.00 | 0.00 | 99 | 1006.0 |
| 20260503195418 | 69 | 84 | 0.0 | 9.0 | 0.00 | 0.00 | 0.00 | 99 | 1006.0 |
| 20260503194918 | 69 | 72 | 0.0 | 9.0 | 0.00 | 0.00 | 0.00 | 99 | 1006.1 |
| 20260503194418 | 69 | 41 | 0.0 | 8.0 | 0.00 | 0.00 | 0.00 | 99 | 1006.2 |
| 20260503193917 | 70 | 3 | 0.0 | 8.0 | 0.00 | 0.00 | 0.00 | 99 | 1006.1 |
| 20260503193418 | 69 | 85 | 0.0 | 1.0 | 0.00 | 0.00 | 0.00 | 99 | 1006.2 |
| 20260503192918 | 67 | 80 | 0.0 | 1.0 | 0.00 | 0.00 | 0.00 | 99 | 1007.0 |
| 20260503192417 | 67 | 45 | 0.0 | 3.0 | 0.00 | 0.00 | 0.00 | 99 | 1006.2 |
| 20260503191418 | 71 | 129 | 1.0 | 6.0 | 0.00 | 0.00 | 0.00 | 99 | 1006.2 |
| 20260503190918 | 70 | 83 | 0.0 | 2.0 | 0.00 | 0.00 | 0.00 | 99 | 1006.2 |
| 20260503190417 | 69 | 38 | 0.0 | 6.0 | 0.00 | 0.00 | 0.00 | 99 | 1006.2 |
| 20260503185917 | 67 | 7 | 0.0 | 9.0 | 0.00 | 0.00 | 0.00 | 99 | 1007.0 |
| 20260503185417 | 64 | 42 | 0.0 | 9.0 | 0.00 | 0.00 | 0.00 | 99 | 1006.2 |
| 20260503184917 | 61 | 48 | 0.0 | 5.0 | 0.00 | 0.00 | 0.00 | 99 | 1007.0 |
| 20260503184417 | 61 | 92 | 0.0 | 5.0 | 0.00 | 0.00 | 0.00 | 99 | 1006.2 |
| 20260503183917 | 60 | 90 | 0.0 | 2.0 | 0.00 | 0.00 | 0.00 | 99 | 1007.0 |
| 20260503183418 | 58 | 45 | 0.0 | 1.0 | 0.00 | 0.00 | 0.00 | 99 | 1007.0 |
| 20260503182917 | 58 | 79 | 0.0 | 4.0 | 0.00 | 0.00 | 0.00 | 99 | 1007.0 |
| 20260503182417 | 60 | 48 | 0.0 | 5.0 | 0.00 | 0.00 | 0.00 | 99 | 1007.0 |
| 20260503181917 | 62 | 48 | 0.0 | 10.0 | 0.00 | 0.00 | 0.00 | 99 | 1007.0 |
| 20260503181417 | 63 | 74 | 1.0 | 10.0 | 0.00 | 0.00 | 0.00 | 99 | 1007.0 |
| 20260503180917 | 61 | 83 | 0.0 | 5.0 | 0.00 | 0.00 | 0.00 | 99 | 1007.0 |
| 20260503180417 | 57 | 5 | 0.0 | 7.0 | 0.00 | 0.00 | 0.00 | 99 | 1007.0 |
| 20260503175917 | 57 | 42 | 1.0 | 7.0 | 0.00 | 0.00 | 0.00 | 99 | 1007.0 |
| 20260503175417 | 57 | 47 | 0.0 | 5.0 | 0.00 | 0.00 | 0.00 | 99 | 1007.0 |
| 20260503174917 | 57 | 35 | 0.0 | 5.0 | 0.00 | 0.00 | 0.00 | 99 | 1007.0 |
| 20260503174417 | 58 | 83 | 0.0 | 4.0 | 0.00 | 0.00 | 0.00 | 99 | 1007.0 |
| 20260503173917 | 59 | 36 | 0.0 | 4.0 | 0.00 | 0.00 | 0.00 | 99 | 1007.0 |
| 20260503173418 | 57 | 35 | 0.0 | 4.0 | 0.00 | 0.00 | 0.00 | 99 | 1007.0 |
| 20260503172917 | 57 | 40 | 0.0 | 5.0 | 0.00 | 0.00 | 0.00 | 99 | 1007.0 |
| 20260503172417 | 57 | 45 | 0.0 | 5.0 | 0.00 | 0.00 | 0.00 | 99 | 1007.0 |
| 20260503171917 | 56 | 71 | 0.0 | 6.0 | 0.00 | 0.00 | 0.00 | 99 | 1007.0 |
| 20260503171417 | 55 | 43 | 1.0 | 6.0 | 0.00 | 0.00 | 0.00 | 99 | 1007.0 |
| 20260503170917 | 56 | 39 | 0.0 | 4.0 | 0.00 | 0.00 | 0.00 | 99 | 1007.0 |
| 20260503170417 | 57 | 309 | 0.0 | 4.0 | 0.00 | 0.00 | 0.00 | 99 | 1007.0 |
| 20260503150917 | 55 | 72 | 0.0 | 6.0 | 0.00 | 0.00 | 0.00 | 99 | 1007.1 |
| 20260503150417 | 57 | 45 | 0.0 | 4.0 | 0.00 | 0.00 | 0.00 | 99 | 1007.0 |
| 20260503131417 | 51 | 42 | 0.0 | 3.0 | 0.00 | 0.00 | 0.00 | 99 | 1008.0 |
| 20260503130417 | 50 | 46 | 0.0 | 10.0 | 0.00 | 0.00 | 0.00 | 99 | 1008.0 |
| 20260503110417 | 41 | 131 | 0.0 | 5.0 | 0.00 | 0.00 | 0.00 | 99 | 1007.1 |
| 20260503090417 | 37 | 88 | 0.0 | 0.0 | 0.00 | 0.00 | 0.00 | 99 | 1007.0 |
| 20260503081417 | 34 | 135 | 0.0 | 0.0 | 0.00 | 0.00 | 0.00 | 99 | 1008.0 |
| 20260503080917 | 34 | 91 | 0.0 | 0.0 | 0.00 | 0.00 | 0.00 | 99 | 1008.0 |
| 20260503080417 | 34 | 174 | 0.0 | 0.0 | 0.00 | 0.00 | 0.00 | 99 | 1008.0 |
| 20260503072917 | 35 | 72 | 0.0 | 0.0 | 0.00 | 0.00 | 0.00 | 99 | 1008.0 |
| 20260503072417 | 35 | 87 | 0.0 | 0.0 | 0.00 | 0.00 | 0.00 | 99 | 1008.0 |
| 20260503071917 | 35 | 136 | 0.0 | 0.0 | 0.00 | 0.00 | 0.00 | 99 | 1008.0 |
| 20260503071417 | 35 | 132 | 0.0 | 0.0 | 0.00 | 0.00 | 0.00 | 99 | 1008.0 |
| 20260503070917 | 35 | 93 | 0.0 | 3.0 | 0.00 | 0.00 | 0.00 | 99 | 1008.0 |
| 20260503070417 | 34 | 102 | 0.0 | 3.0 | 0.00 | 0.00 | 0.00 | 99 | 1008.0 |
| 20260503054917 | 30 | 22 | 0.0 | 0.0 | 0.00 | 0.00 | 0.00 | 99 | 1008.0 |
| 20260503054417 | 30 | 87 | 0.0 | 0.0 | 0.00 | 0.00 | 0.00 | 99 | 1008.0 |
| 20260503053917 | 29 | 179 | 0.0 | 0.0 | 0.00 | 0.00 | 0.00 | 99 | 1008.0 |
| 20260503053417 | 29 | 148 | 0.0 | 0.0 | 0.00 | 0.00 | 0.00 | 99 | 1008.0 |
| 20260503052917 | 29 | 148 | 0.0 | 0.0 | 0.00 | 0.00 | 0.00 | 99 | 1008.0 |
| 20260503052417 | 30 | 155 | 0.0 | 0.0 | 0.00 | 0.00 | 0.00 | 99 | 1008.0 |
| 20260503051917 | 30 | 151 | 0.0 | 0.0 | 0.00 | 0.00 | 0.00 | 99 | 1008.0 |
| 20260503051417 | 30 | 141 | 0.0 | 0.0 | 0.00 | 0.00 | 0.00 | 99 | 1008.0 |
| 20260503050917 | 31 | 139 | 0.0 | 0.0 | 0.00 | 0.00 | 0.00 | 99 | 1008.1 |
| 20260503050417 | 31 | 151 | 0.0 | 0.0 | 0.00 | 0.00 | 0.00 | 99 | 1009.0 |
| 20260503045916 | 31 | 175 | 0.0 | 0.0 | 0.00 | 0.00 | 0.00 | 99 | 1009.0 |
| 20260503045416 | 32 | 159 | 0.0 | 0.0 | 0.00 | 0.00 | 0.00 | 99 | 1009.0 |
| 20260503044917 | 32 | 172 | 0.0 | 0.0 | 0.00 | 0.00 | 0.00 | 99 | 1008.2 |
| 20260503044416 | 33 | 131 | 0.0 | 0.0 | 0.00 | 0.00 | 0.00 | 99 | 1009.0 |
| 20260503043916 | 33 | 144 | 0.0 | 1.0 | 0.00 | 0.00 | 0.00 | 99 | 1009.0 |
| 20260503043417 | 33 | 132 | 0.0 | 1.0 | 0.00 | 0.00 | 0.00 | 99 | 1009.0 |
| 20260503042916 | 33 | 111 | 0.0 | 0.0 | 0.00 | 0.00 | 0.00 | 99 | 1008.2 |
| 20260503042416 | 33 | 96 | 0.0 | 0.0 | 0.00 | 0.00 | 0.00 | 99 | 1009.0 |
| 20260503041916 | 33 | 118 | 0.0 | 0.0 | 0.00 | 0.00 | 0.00 | 99 | 1009.0 |
| 20260503041416 | 33 | 154 | 0.0 | 0.0 | 0.00 | 0.00 | 0.00 | 99 | 1009.0 |
| 20260503040916 | 33 | 213 | 0.0 | 0.0 | 0.00 | 0.00 | 0.00 | 99 | 1009.0 |
| 20260503040416 | 33 | 186 | 0.0 | 0.0 | 0.00 | 0.00 | 0.00 | 99 | 1009.0 |
| 20260503035916 | 33 | 139 | 0.0 | 0.0 | 0.00 | 0.00 | 0.00 | 99 | 1009.0 |
| 20260503035416 | 33 | 129 | 0.0 | 0.0 | 0.00 | 0.00 | 0.00 | 99 | 1009.0 |
| 20260503034916 | 33 | 124 | 0.0 | 0.0 | 0.00 | 0.00 | 0.00 | 99 | 1009.0 |
| 20260503034416 | 33 | 134 | 0.0 | 0.0 | 0.00 | 0.00 | 0.00 | 99 | 1009.0 |
| 20260503033916 | 33 | 147 | 0.0 | 0.0 | 0.00 | 0.00 | 0.00 | 99 | 1009.0 |
| 20260503033417 | 33 | 130 | 0.0 | 0.0 | 0.00 | 0.00 | 0.00 | 99 | 1009.0 |
| 20260503032917 | 33 | 131 | 0.0 | 0.0 | 0.00 | 0.00 | 0.00 | 99 | 1009.0 |
| 20260503032416 | 33 | 121 | 0.0 | 0.0 | 0.00 | 0.00 | 0.00 | 99 | 1009.0 |
| 20260503031916 | 33 | 169 | 0.0 | 0.0 | 0.00 | 0.00 | 0.00 | 99 | 1009.0 |
| 20260503031416 | 33 | 116 | 0.0 | 0.0 | 0.00 | 0.00 | 0.00 | 99 | 1009.0 |
| 20260503030916 | 33 | 137 | 0.0 | 0.0 | 0.00 | 0.00 | 0.00 | 99 | 1009.0 |
| 20260503030416 | 33 | 140 | 0.0 | 0.0 | 0.00 | 0.00 | 0.00 | 99 | 1009.0 |
| 20260503025916 | 34 | 152 | 0.0 | 0.0 | 0.00 | 0.00 | 0.00 | 99 | 1009.0 |
| 20260503025416 | 34 | 147 | 0.0 | 0.0 | 0.00 | 0.00 | 0.00 | 99 | 1009.0 |
| 20260503024916 | 34 | 167 | 0.0 | 0.0 | 0.00 | 0.00 | 0.00 | 99 | 1009.0 |
| 20260503024416 | 35 | 117 | 0.0 | 0.0 | 0.00 | 0.00 | 0.00 | 99 | 1009.0 |
| 20260503023916 | 35 | 128 | 0.0 | 0.0 | 0.00 | 0.00 | 0.00 | 99 | 1009.0 |
| 20260503023416 | 36 | 107 | 0.0 | 0.0 | 0.00 | 0.00 | 0.00 | 99 | 1009.0 |
| 20260503022916 | 36 | 150 | 0.0 | 0.0 | 0.00 | 0.00 | 0.00 | 99 | 1009.0 |
| 20260503022416 | 36 | 129 | 0.0 | 0.0 | 0.00 | 0.00 | 0.00 | 99 | 1009.0 |
| 20260503021916 | 36 | 129 | 0.0 | 0.0 | 0.00 | 0.00 | 0.00 | 99 | 1009.0 |
| 20260503021416 | 37 | 47 | 0.0 | 0.0 | 0.00 | 0.00 | 0.00 | 99 | 1009.0 |
| 20260503020916 | 37 | 106 | 0.0 | 0.0 | 0.00 | 0.00 | 0.00 | 99 | 1009.0 |
| 20260503020416 | 37 | 94 | 0.0 | 0.0 | 0.00 | 0.00 | 0.00 | 99 | 1009.0 |
| 20260503015916 | 37 | 111 | 0.0 | 0.0 | 0.00 | 0.00 | 0.00 | 99 | 1009.0 |
| 20260503015416 | 37 | 111 | 0.0 | 0.0 | 0.00 | 0.00 | 0.00 | 99 | 1009.0 |
| 20260503014916 | 37 | 136 | 0.0 | 0.0 | 0.00 | 0.00 | 0.00 | 99 | 1009.0 |
| 20260503014416 | 37 | 122 | 0.0 | 0.0 | 0.00 | 0.00 | 0.00 | 99 | 1009.0 |
| 20260503013916 | 37 | 135 | 0.0 | 0.0 | 0.00 | 0.00 | 0.00 | 99 | 1009.0 |
| 20260503013416 | 37 | 136 | 0.0 | 0.0 | 0.00 | 0.00 | 0.00 | 99 | 1009.0 |
| 20260503012916 | 38 | 138 | 0.0 | 0.0 | 0.00 | 0.00 | 0.00 | 99 | 1009.0 |
| 20260503012416 | 38 | 135 | 0.0 | 0.0 | 0.00 | 0.00 | 0.00 | 99 | 1009.0 |
| 20260503011916 | 38 | 135 | 0.0 | 0.0 | 0.00 | 0.00 | 0.00 | 99 | 1009.0 |
| 20260503011416 | 39 | 135 | 0.0 | 0.0 | 0.00 | 0.00 | 0.00 | 99 | 1009.0 |
| 20260503010916 | 39 | 140 | 0.0 | 0.0 | 0.00 | 0.00 | 0.00 | 99 | 1009.0 |
| 20260503010416 | 40 | 151 | 0.0 | 0.0 | 0.00 | 0.00 | 0.00 | 99 | 1009.0 |
| 20260503005916 | 40 | 157 | 0.0 | 0.0 | 0.00 | 0.00 | 0.00 | 99 | 1009.0 |
| 20260503005416 | 41 | 206 | 0.0 | 0.0 | 0.00 | 0.00 | 0.00 | 99 | 1009.0 |
| 20260503004916 | 41 | 130 | 0.0 | 0.0 | 0.00 | 0.00 | 0.00 | 99 | 1008.1 |
| 20260503004416 | 42 | 77 | 0.0 | 0.0 | 0.00 | 0.00 | 0.00 | 99 | 1008.1 |
| 20260503003916 | 42 | 64 | 0.0 | 0.0 | 0.00 | 0.00 | 0.00 | 99 | 1008.0 |
| 20260503003416 | 43 | 64 | 0.0 | 0.0 | 0.00 | 0.00 | 0.00 | 99 | 1008.0 |
| 20260503002916 | 43 | 67 | 0.0 | 0.0 | 0.00 | 0.00 | 0.00 | 99 | 1008.0 |
| 20260503002416 | 43 | 63 | 0.0 | 0.0 | 0.00 | 0.00 | 0.00 | 99 | 1008.0 |
| 20260503001916 | 44 | 71 | 0.0 | 0.0 | 0.00 | 0.00 | 0.00 | 99 | 1008.0 |
| 20260503001416 | 44 | 59 | 0.0 | 0.0 | 0.00 | 0.00 | 0.00 | 99 | 1008.0 |
| 20260503000916 | 45 | 61 | 0.0 | 0.0 | 0.00 | 0.00 | 0.00 | 99 | 1008.0 |
| 20260503000416 | 45 | 82 | 0.0 | 0.0 | 0.00 | 0.00 | 0.00 | 99 | 1008.0 |
| 20260502235916 | 46 | 86 | 0.0 | 0.0 | 0.00 | 0.00 | 0.00 | 99 | 1008.0 |
| 20260502235416 | 46 | 76 | 0.0 | 0.0 | 0.00 | 0.00 | 0.00 | 99 | 1008.0 |